Dewpoint
-1 -1 -1 -2 -2 -2 -2 -2 -3 -3 -2 1 4 6 7 7 8 8 9 9 10 10 10 9 8 7 7 7 6 6 6 5 6 8 8 9 8 7 7 8 8 8 8
-0 -1 -1 -1 -2 -2 -3 -3 -4 -3 -1 1 4 6 8 9 9 8 8 7 6 5 4 3 2 1 0 -1 -1 -2 -2 -2 -1 6 6 8 7 7 8 7 8 8 9
-1 -1 -1 -1 -1 -2 -3 -3 -3 -3 -2 1 5 7 8 7 5 2 1 0 0 -0 -2 -3 -4 -5 -6 -6 -6 -6 -6 -6 -6 -6 3 6 6 7 6 7 7 8 8
-0 -0 -0 -1 -1 -1 -1 -2 -2 -2 -1 -1 -0 -0 -0 -0 0 -0 -2 -4 -6 -6 -6 -5 -5 -5 -5 -5 -6 -6 -7 -7 -6 -7 -6 -5 -3 3 3 2 4 4 6
0 0 0 -0 -0 -0 -1 -1 -1 -1 -1 -1 -2 -3 -4 -5 -5 -5 -5 -5 -4 -3 -3 -3 -4 -5 -6 -7 -9 -10 -11 -11 -9 -7 -4 -2 1 2 4 4 2 2 3
1 1 1 1 0 0 -0 -0 -1 -2 -3 -4 -5 -5 -5 -5 -5 -4 -3 -3 -2 -2 -2 -4 -5 -7 -11 -16 -23 -31 -33 -32 -27 -17 -9 1 2 2 1 1 1 2 2
1 1 1 1 1 1 0 -0 -1 -2 -2 -2 -2 -3 -4 -4 -3 -3 -2 -1 -1 -1 -3 -7 -11 -20 -30 -33 -33 -33 -33 -33 -33 -29 -15 -5 -3 -3 -0 0 2 2 2
2 2 1 1 1 1 1 0 0 0 -0 -1 -2 -3 -3 -3 -2 -1 -0 -1 -3 -6 -11 -19 -30 -32 -32 -31 -31 -31 -31 -32 -32 -25 -19 -21 -21 -12 -2 -1 1 -1 -1
2 2 2 2 2 2 1 1 1 1 0 -1 -2 -3 -2 -1 -0 -0 -1 -4 -9 -15 -25 -31 -31 -31 -30 -29 -29 -29 -30 -31 -30 -30 -30 -26 -19 -2 -3 -1 -2 -4 -4
2 2 2 2 2 2 2 2 1 1 -0 -1 -2 -2 -1 -0 -0 -2 -5 -10 -17 -27 -31 -31 -30 -29 -28 -28 -28 -28 -28 -29 -29 -27 -25 -17 -6 -11 -12 -12 -13 -12 -6
2 2 2 2 2 2 2 2 1 0 -1 -2 -1 -0 -0 -1 -3 -5 -11 -19 -29 -31 -30 -29 -28 -28 -27 -26 -26 -27 -28 -28 -26 -23 -15 -6 -8 -11 -12 -16 -13 -8 -8
1 2 3 2 3 3 2 2 1 -0 -1 -1 -0 -0 -2 -3 -5 -11 -21 -29 -31 -29 -29 -28 -27 -26 -25 -25 -26 -27 -27 -25 -20 -13 -7 -8 -10 -11 -11 -10 -8 -7 -7
2 2 3 3 3 3 3 2 1 -1 -1 -0 0 -1 -4 -9 -15 -22 -29 -30 -29 -28 -27 -25 -24 -24 -24 -25 -26 -27 -26 -21 -15 -11 -9 -10 -10 -10 -9 -7 -7 -6 -6
1 2 3 3 3 3 2 1 -1 -0 1 1 -1 -2 -7 -14 -22 -28 -29 -28 -27 -26 -24 -23 -23 -24 -24 -25 -26 -26 -21 -16 -12 -10 -10 -10 -9 -8 -8 -7 -7 -6 -6
1 2 3 3 3 3 2 -1 0 2 1 -0 -2 -5 -12 -22 -28 -29 -28 -27 -25 -23 -23 -23 -23 -24 -25 -26 -25 -20 -16 -13 -11 -10 -10 -9 -8 -8 -7 -7 -7 -7 -7
2 2 3 3 3 2 -0 1 2 1 -0 -3 -5 -11 -20 -28 -29 -27 -26 -25 -22 -22 -22 -22 -23 -24 -25 -25 -25 -22 -10 -8 -8 -10 -10 -9 -9 -8 -7 -7 -8 -8 -7
1 2 3 3 3 -0 1 2 1 -1 -3 -6 -11 -16 -24 -28 -27 -26 -24 -22 -21 -20 -21 -22 -23 -24 -24 -25 -23 -10 -8 -8 -9 -9 -9 -9 -8 -8 -8 -9 -8 -7 -7
2 2 3 2 -0 1 2 0 -1 -3 -6 -13 -20 -23 -27 -27 -25 -24 -22 -20 -20 -21 -21 -22 -23 -24 -24 -22 -16 -8 -8 -9 -9 -9 -9 -8 -8 -9 -9 -8 -7 -8 -10
2 2 2 0 0 2 1 -0 -2 -4 -9 -19 -25 -27 -26 -25 -23 -21 -19 -20 -20 -20 -21 -22 -23 -23 -23 -19 -12 -9 -9 -10 -9 -9 -8 -8 -10 -9 -8 -7 -8 -10 -10
2 2 0 -0 1 1 -0 -1 -3 -8 -17 -24 -26 -26 -24 -23 -21 -19 -19 -20 -20 -20 -21 -22 -23 -21 -20 -16 -9 -9 -10 -9 -10 -8 -8 -9 -10 -9 -8 -8 -9 -9 -11
1 0 -0 1 1 -0 -2 -4 -8 -15 -25 -26 -25 -24 -22 -20 -19 -18 -19 -19 -20 -21 -22 -22 -21 -19 -15 -10 -9 -9 -10 -9 -9 -9 -9 -10 -9 -8 -9 -10 -10 -10 -9
0 -0 -0 0 -0 -1 -7 -9 -18 -24 -25 -24 -23 -22 -20 -18 -18 -18 -19 -20 -21 -21 -22 -22 -19 -15 -11 -10 -10 -10 -10 -9 -9 -9 -11 -9 -8 -10 -10 -10 -10 -10 -9
-0 -1 -0 -0 -1 -6 -11 -21 -24 -24 -24 -23 -22 -21 -19 -16 -17 -18 -20 -21 -21 -21 -21 -16 -12 -11 -11 -11 -10 -10 -9 -9 -10 -10 -9 -9 -11 -11 -11 -11 -10 -10 -11
-1 -1 -0 -1 -5 -11 -22 -24 -23 -23 -22 -22 -21 -18 -15 -16 -18 -19 -20 -21 -21 -20 -15 -11 -10 -11 -12 -11 -11 -9 -10 -10 -10 -9 -11 -12 -12 -11 -12 -12 -12 -11 -11
-1 -0 -2 -5 -12 -22 -23 -23 -22 -21 -21 -20 -16 -15 -16 -18 -20 -20 -21 -21 -19 -16 -10 -10 -10 -11 -11 -11 -10 -10 -10 -10 -9 -11 -12 -13 -12 -12 -13 -12 -12 -11 -11
-0 -3 -4 -14 -22 -23 -22 -21 -21 -21 -18 -15 -15 -17 -18 -19 -20 -21 -23 -20 -17 -14 -12 -10 -10 -11 -11 -10 -10 -10 -10 -10 -11 -12 -12 -13 -12 -12 -12 -12 -12 -12 -11
Wind_Speed
5 6 6 6 7 8 9 11 12 13 9 6 5 2 2 3 6 7 8 8 9 10 12 13 14 17 19 21 22 24 25 27 28 30 33 31 36 26 29 30 27 30 34
10 9 10 12 14 16 17 17 18 17 15 13 11 9 8 8 7 7 6 7 8 10 12 13 15 16 18 19 21 23 25 26 25 23 29 22 29 25 21 35 37 39 36
14 15 16 18 17 17 18 19 19 18 18 17 14 13 11 12 9 9 9 10 10 11 13 15 16 18 20 21 23 24 25 27 27 23 18 17 20 36 33 31 32 31 32
18 18 18 18 17 17 16 17 18 19 20 17 15 13 13 12 13 10 10 9 11 13 16 18 21 23 25 26 27 28 28 29 30 30 25 27 30 24 32 23 27 32 27
20 20 18 16 16 15 14 14 15 16 16 15 14 13 13 13 11 9 11 14 17 20 23 25 27 28 28 28 28 28 28 27 28 26 26 27 26 23 26 38 30 36 30
21 20 17 16 15 13 12 12 12 15 14 13 13 13 12 11 11 13 16 20 23 26 29 30 31 31 31 31 31 30 29 28 28 28 27 20 21 24 27 33 41 39 36
23 22 19 16 14 12 11 10 10 12 11 10 11 12 12 13 15 18 21 24 27 29 30 29 29 29 29 28 29 29 29 29 29 27 27 27 27 26 25 28 34 35 37
24 21 18 15 13 12 10 9 8 9 9 9 10 11 12 14 17 20 23 26 26 27 27 27 27 27 28 29 30 30 31 31 29 27 28 31 30 26 23 27 29 34 36
26 22 19 16 14 12 10 7 6 6 6 7 8 10 12 15 19 22 24 24 25 25 26 26 26 27 27 28 30 31 33 33 32 34 34 33 30 22 25 23 30 27 33
25 22 19 16 15 12 10 7 5 3 4 5 7 10 14 17 21 23 24 24 24 24 24 24 25 27 29 31 33 35 35 35 35 34 34 31 25 31 31 33 34 32 27
25 23 19 17 16 14 10 7 4 1 2 5 8 12 16 20 22 23 23 23 22 23 23 25 28 30 32 33 34 35 36 37 36 34 33 26 29 34 33 36 30 27 28
22 21 19 18 17 14 10 7 4 1 3 7 11 16 18 20 22 22 21 21 22 23 25 27 29 31 33 35 36 37 37 36 35 33 26 28 32 35 33 28 28 29 28
20 20 20 19 17 14 11 7 4 2 5 10 15 19 20 20 20 20 21 21 23 25 26 29 31 34 35 36 36 37 37 35 32 31 30 33 32 34 31 30 32 30 32
19 20 20 19 16 13 10 7 3 4 11 16 21 22 21 20 20 20 21 22 24 27 29 31 33 34 36 36 36 37 35 33 33 32 31 34 31 30 33 33 33 34 36
19 20 21 19 17 14 10 5 2 9 14 19 20 20 20 20 20 20 22 23 26 29 32 34 35 35 36 36 36 34 34 34 35 35 35 32 31 31 30 32 38 38 39
16 18 19 19 17 13 7 2 5 12 16 17 18 19 19 20 20 21 24 27 30 32 34 36 37 36 36 36 36 34 33 31 33 36 36 34 35 34 34 35 37 34 38
14 17 19 18 14 10 5 3 8 13 14 16 16 18 19 20 21 24 27 30 32 35 37 37 37 38 38 37 35 31 29 32 33 32 35 39 36 35 39 37 37 40 35
11 15 17 16 13 8 2 5 11 13 14 15 17 18 19 21 23 26 29 32 35 37 38 38 38 39 39 37 33 29 30 33 31 32 34 37 39 40 36 40 45 44 49
8 12 13 13 10 4 4 9 12 15 16 16 16 18 20 23 26 29 32 34 36 38 39 39 40 39 39 35 30 29 33 35 35 34 35 33 41 38 38 40 44 51 50
8 12 13 11 7 4 6 12 15 14 14 15 17 19 22 25 27 30 33 34 36 38 40 41 40 37 37 34 28 30 33 37 39 37 35 38 36 37 34 43 45 44 47
9 11 11 8 5 6 9 11 13 13 14 16 18 20 23 26 30 32 34 35 38 40 41 42 40 37 33 30 30 30 32 35 39 42 41 42 40 35 42 42 40 38 41
11 11 9 6 7 9 8 11 12 13 15 17 19 22 25 29 31 33 34 36 38 39 41 41 39 35 31 31 31 31 30 32 37 41 43 43 41 45 42 39 35 36 36
12 11 8 7 8 8 9 10 12 14 16 19 22 25 28 31 32 34 36 37 37 38 38 35 35 35 39 35 32 31 32 34 37 39 37 41 43 39 38 37 36 34 38
12 9 7 8 8 9 9 10 12 16 19 22 25 29 32 33 33 34 35 36 36 35 32 32 33 37 37 37 37 38 40 39 40 38 43 43 37 33 38 38 38 39 38
10 8 7 6 7 7 8 11 14 18 21 25 29 32 32 33 35 35 35 34 32 27 28 31 32 33 34 36 34 36 38 37 37 41 41 39 36 39 41 40 39 42 42
8 8 6 5 6 8 9 12 16 20 25 29 31 31 33 34 35 36 38 32 30 28 26 25 25 29 29 31 34 35 34 33 37 37 35 35 35 38 39 40 44 46 44
Wind_Direction
97 79 79 73 69 80 79 73 71 68 68 76 91 142 216 282 293 304 318 329 336 334 331 328 324 320 319 321 321 318 317 317 321 318 314 309 309 310 307 310 302 295 292
124 109 101 102 98 91 84 76 69 68 68 68 73 79 79 81 62 54 38 27 3 349 341 339 337 333 329 326 325 326 324 322 325 321 318 311 306 306 302 301 294 300 299
137 126 118 106 99 89 79 72 69 69 65 63 67 74 77 85 85 66 53 37 18 2 350 342 336 333 330 329 329 328 329 326 324 322 313 314 304 310 304 298 296 300 298
141 132 121 112 100 86 80 76 73 71 74 76 80 86 88 79 66 50 36 19 6 357 349 344 339 336 334 331 331 328 326 324 323 319 313 302 302 309 309 299 291 293 289
147 137 131 122 110 101 86 74 71 73 77 77 73 70 67 64 54 37 18 8 360 352 347 343 341 339 337 335 333 331 329 326 324 323 320 316 312 312 307 309 305 300 298
152 145 141 134 124 111 97 84 77 82 79 72 69 59 52 45 25 13 3 357 350 345 341 338 336 335 334 334 333 332 330 328 324 321 319 318 317 312 309 305 307 305 304
163 159 154 149 135 125 112 99 90 90 80 62 53 43 31 18 8 1 354 347 343 338 335 334 334 335 335 335 334 333 330 329 325 321 315 313 312 311 308 306 301 299 303
171 166 162 157 148 139 127 115 104 90 79 57 40 28 16 8 1 353 347 341 337 336 335 335 336 337 337 336 335 334 333 331 328 323 319 316 314 313 308 307 307 318 308
174 172 170 167 161 152 141 134 117 93 72 44 29 13 6 357 352 345 340 337 336 335 334 334 335 336 336 335 335 335 335 333 330 326 325 324 321 315 312 300 297 310 308
175 176 177 175 171 167 162 155 138 110 64 29 10 1 355 348 344 341 338 336 333 332 333 335 337 338 339 339 338 335 332 328 325 325 324 322 317 316 312 311 308 305 296
180 182 180 179 179 176 172 171 166 126 33 6 356 349 347 346 344 338 335 333 333 333 335 339 340 340 338 336 333 331 329 327 326 326 325 316 317 318 315 318 312 301 296
184 186 184 183 183 181 180 185 188 239 355 350 350 348 344 343 337 334 334 333 333 337 340 340 339 337 337 336 333 330 328 327 326 324 318 313 316 317 317 314 310 305 303
186 188 188 187 187 187 189 193 207 287 350 354 351 345 340 337 338 336 334 336 338 339 338 337 338 338 337 334 331 331 328 326 322 320 314 315 316 317 316 315 313 310 308
194 192 189 190 191 191 196 201 217 351 355 354 350 346 338 337 335 335 336 337 338 338 338 339 338 337 335 333 332 329 325 322 320 318 315 316 316 315 316 314 312 310 308
194 196 193 192 194 197 198 194 7 1 354 346 345 344 339 334 332 333 336 338 339 338 339 338 337 336 335 334 331 327 324 321 319 318 319 318 317 315 313 312 311 311 308
189 193 194 194 194 193 188 190 336 343 338 341 341 339 333 330 333 336 338 338 338 338 338 337 337 335 334 332 330 327 322 319 318 320 322 320 321 321 316 312 310 308 308
183 189 190 189 187 182 187 302 333 339 338 335 334 333 329 331 335 337 338 338 337 336 336 336 335 333 333 332 331 326 321 317 319 320 320 322 321 320 318 318 310 307 310
183 185 186 181 179 180 241 325 339 335 326 328 326 330 331 333 336 338 338 337 335 335 335 334 334 334 334 335 331 327 322 322 321 321 320 320 322 321 317 313 311 318 312
185 182 179 181 184 216 300 330 335 329 325 324 330 332 332 336 337 336 336 336 334 333 333 334 335 335 334 334 333 330 327 324 322 320 320 321 319 320 316 315 320 315 312
172 179 181 188 205 255 302 323 320 319 322 327 331 333 335 335 335 336 336 334 333 331 332 332 334 336 333 337 334 331 327 322 321 322 320 322 318 317 319 320 317 312 313
181 184 188 204 236 283 308 315 318 319 324 327 330 332 333 334 335 334 335 333 333 330 331 332 334 336 338 334 331 329 326 322 321 322 322 320 320 317 320 318 314 315 315
193 198 208 228 275 290 310 315 316 319 323 327 331 332 333 334 334 333 333 332 331 330 333 332 333 337 335 329 329 327 324 323 322 320 319 321 320 319 318 318 319 317 316
206 209 225 257 291 298 304 314 316 321 327 329 330 331 332 333 334 333 332 330 332 332 332 333 335 331 330 328 328 327 324 323 322 319 319 317 318 318 321 323 321 323 327
210 220 252 272 286 289 301 312 320 326 328 328 328 331 332 332 332 330 330 330 333 333 333 330 323 324 325 327 330 328 326 326 325 328 322 320 320 320 323 326 328 328 324
214 234 251 270 279 290 314 322 323 326 327 328 331 331 330 331 330 330 330 331 334 333 324 318 319 320 321 322 322 323 324 324 325 323 321 326 330 324 328 326 326 328 328
229 239 250 254 283 308 323 323 325 327 328 329 330 330 329 330 329 328 328 331 336 334 326 319 318 318 316 320 322 322 323 324 323 323 326 329 325 324 324 324 326 330 329
Height
1485 1486 1485 1484 1484 1483 1483 1482 1480 1479 1480 1481 1482 1484 1485 1486 1488 1489 1490 1490 1490 1489 1489 1487 1486 1483 1481 1478 1474 1470 1467 1464 1459 1453 1448 1443 1439 1437 1435 1432 1429 1427 1425
1484 1485 1485 1486 1486 1485 1484 1483 1480 1481 1482 1481 1482 1483 1485 1486 1488 1489 1489 1489 1489 1488 1487 1485 1483 1481 1478 1475 1472 1467 1463 1460 1457 1452 1446 1436 1434 1432 1429 1427 1424 1420 1417
1482 1484 1486 1486 1487 1488 1485 1484 1483 1483 1483 1483 1484 1485 1486 1488 1489 1489 1489 1488 1488 1487 1486 1484 1481 1478 1475 1471 1467 1463 1459 1454 1452 1450 1448 1437 1429 1424 1422 1419 1417 1413 1409
1481 1484 1486 1487 1488 1489 1489 1487 1486 1485 1485 1487 1488 1488 1488 1489 1489 1490 1489 1489 1487 1486 1484 1482 1479 1475 1471 1467 1463 1460 1456 1451 1447 1444 1444 1440 1434 1424 1406 1411 1409 1407 1403
1480 1482 1485 1488 1489 1491 1491 1490 1488 1487 1488 1489 1490 1490 1490 1490 1491 1491 1490 1488 1486 1484 1481 1478 1474 1471 1467 1463 1460 1456 1452 1448 1444 1440 1435 1432 1428 1425 1418 1396 1398 1396 1395
1480 1482 1486 1488 1489 1490 1491 1491 1491 1490 1490 1490 1490 1490 1490 1491 1491 1489 1487 1485 1483 1480 1477 1474 1470 1466 1462 1458 1454 1451 1447 1443 1439 1435 1431 1427 1423 1419 1414 1406 1393 1387 1383
1478 1480 1484 1487 1489 1491 1491 1492 1492 1490 1491 1491 1491 1490 1490 1489 1488 1486 1485 1483 1480 1477 1474 1470 1467 1463 1459 1455 1450 1447 1442 1438 1434 1429 1425 1422 1418 1414 1409 1403 1391 1383 1375
1477 1481 1484 1487 1490 1492 1492 1492 1493 1492 1491 1490 1490 1490 1489 1488 1487 1485 1483 1480 1477 1474 1471 1467 1463 1460 1455 1451 1446 1442 1437 1432 1428 1424 1420 1415 1411 1407 1403 1397 1391 1377 1368
1475 1479 1483 1487 1489 1491 1491 1492 1492 1491 1490 1489 1489 1489 1488 1487 1485 1483 1481 1477 1474 1471 1468 1464 1460 1456 1452 1447 1442 1437 1431 1426 1421 1417 1412 1408 1403 1401 1397 1392 1387 1381 1369
1474 1478 1482 1486 1489 1489 1490 1491 1491 1490 1489 1488 1488 1488 1487 1485 1483 1481 1478 1475 1472 1468 1465 1461 1457 1452 1447 1441 1436 1431 1427 1421 1416 1411 1406 1401 1397 1392 1388 1383 1378 1373 1369
1472 1477 1480 1484 1486 1487 1488 1490 1490 1490 1488 1487 1487 1486 1485 1482 1479 1477 1474 1472 1468 1465 1461 1456 1452 1447 1442 1437 1432 1427 1420 1414 1409 1404 1399 1394 1390 1383 1378 1372 1368 1364 1360
1473 1476 1478 1481 1484 1485 1486 1488 1489 1489 1487 1486 1485 1483 1481 1479 1476 1474 1471 1468 1465 1460 1456 1452 1447 1442 1438 1432 1426 1419 1414 1408 1402 1397 1393 1387 1381 1375 1370 1365 1360 1355 1351
1471 1474 1476 1479 1482 1483 1485 1486 1487 1487 1486 1484 1482 1480 1478 1476 1473 1470 1467 1463 1460 1456 1453 1448 1442 1437 1432 1426 1420 1413 1407 1402 1397 1392 1386 1379 1374 1367 1362 1358 1352 1347 1342
1468 1471 1474 1476 1480 1482 1484 1484 1485 1485 1484 1482 1480 1477 1475 1472 1469 1466 1463 1460 1456 1452 1448 1443 1437 1432 1427 1420 1414 1408 1402 1396 1390 1385 1379 1373 1368 1361 1356 1351 1346 1340 1333
1466 1468 1471 1474 1477 1480 1481 1483 1483 1482 1481 1478 1476 1474 1472 1469 1466 1463 1460 1456 1452 1447 1442 1437 1432 1427 1421 1415 1408 1402 1395 1389 1383 1378 1372 1366 1361 1356 1351 1345 1337 1332 1325
1463 1466 1469 1472 1474 1478 1480 1481 1481 1479 1477 1475 1473 1471 1469 1466 1462 1459 1455 1451 1446 1442 1437 1432 1426 1421 1415 1409 1403 1396 1389 1383 1377 1370 1364 1359 1353 1348 1343 1337 1331 1326 1318
1461 1464 1467 1470 1474 1476 1478 1478 1478 1476 1474 1472 1470 1467 1465 1462 1458 1455 1450 1446 1441 1436 1431 1426 1421 1414 1408 1402 1395 1389 1384 1377 1371 1365 1358 1351 1347 1341 1333 1325 1320 1313 1307
1460 1463 1466 1469 1473 1474 1475 1475 1474 1473 1472 1470 1467 1464 1461 1458 1454 1450 1446 1441 1436 1430 1425 1420 1415 1407 1401 1395 1389 1384 1378 1371 1365 1360 1354 1347 1339 1334 1327 1318 1310 1302 1296
1459 1462 1466 1468 1471 1472 1472 1472 1471 1470 1469 1467 1464 1461 1457 1454 1450 1446 1441 1436 1430 1425 1420 1414 1408 1402 1395 1390 1383 1379 1372 1364 1359 1353 1348 1341 1334 1327 1321 1312 1302 1292 1282
1459 1461 1464 1467 1469 1469 1469 1468 1468 1467 1466 1464 1461 1458 1454 1451 1447 1442 1436 1431 1426 1420 1414 1407 1402 1397 1390 1384 1379 1375 1367 1359 1352 1346 1340 1335 1328 1320 1313 1307 1296 1284 1274
1459 1462 1464 1466 1467 1467 1466 1466 1465 1464 1462 1460 1457 1455 1451 1447 1442 1437 1432 1426 1421 1415 1409 1401 1395 1390 1385 1379 1375 1370 1364 1356 1347 1340 1332 1326 1319 1312 1306 1299 1289 1280 1270
1459 1461 1463 1464 1465 1464 1463 1463 1462 1461 1459 1456 1453 1451 1447 1442 1437 1431 1427 1422 1416 1409 1402 1394 1388 1384 1379 1375 1370 1365 1360 1353 1344 1335 1327 1319 1312 1305 1297 1289 1281 1273 1264
1458 1460 1461 1461 1462 1461 1460 1460 1458 1457 1454 1452 1449 1446 1442 1437 1432 1427 1422 1416 1411 1404 1397 1390 1383 1378 1374 1369 1364 1359 1353 1347 1339 1331 1322 1314 1305 1297 1288 1280 1273 1265 1255
1455 1457 1458 1458 1459 1458 1458 1457 1455 1453 1450 1448 1445 1440 1435 1431 1427 1423 1418 1412 1406 1400 1394 1387 1382 1375 1370 1364 1359 1352 1346 1339 1331 1323 1314 1306 1299 1291 1284 1273 1265 1257 1250
1453 1454 1455 1456 1456 1456 1454 1453 1451 1449 1446 1443 1439 1435 1431 1427 1422 1417 1412 1407 1402 1397 1391 1386 1380 1373 1366 1361 1356 1350 1341 1334 1327 1318 1308 1300 1292 1284 1275 1267 1260 1251 1242
1450 1452 1453 1454 1453 1452 1451 1449 1447 1445 1441 1438 1434 1430 1425 1421 1417 1411 1405 1402 1397 1392 1388 1383 1378 1371 1365 1358 1351 1344 1337 1330 1322 1313 1305 1297 1289 1281 1273 1264 1253 1245 1237